Regional Weather Roundup
Issued by NWS

Home | Current Version | Previous Version | Text Only | Print | Product List | Glossary On
Versions: 1 2 3 4 5 6 7 8 9 10 11 12 13 14 15 16 17 18 19 20 21 22 23 24 25 26 27 28 29 30 31 32 33 34 35 36 37 38 39 40 41 42 43 44 45 46 47 48 49 50
000
ASUS44 KOUN 050000
RWROK

WEATHER ROUNDUP FOR OKLAHOMA
NATIONAL WEATHER SERVICE NORMAN OK
700 PM CDT TUE AUG 04 2015

NOTE: "FAIR" INDICATES FEW OR NO CLOUDS BELOW 12,000 FEET WITH NO
      SIGNIFICANT WEATHER AND/OR OBSTRUCTIONS TO VISIBILITY.

OKZ001>007-009>012-014-015-017-050100-
NORTHWEST OKLAHOMA AND THE PANHANDLE

CITY           SKY/WX    TMP DP  RH WIND       PRES   REMARKS
GAGE           MOSUNNY   89  68  49 S15       29.90F HX  93
6HR MIN TEMP:  82; 6HR MAX TEMP:  90;

GUYMON         SUNNY     89  65  44 S8        29.89F HX  91
ENID/WOODRING  MOSUNNY   91  68  46 S12       29.88R HX  95
$$

OKZ016-021>023-033>039-044-045-050100-
SOUTHWEST OKLAHOMA

CITY           SKY/WX    TMP DP  RH WIND       PRES   REMARKS
LAWTON/REGL    SUNNY     92  69  47 S10       29.87F HX  97
6HR MIN TEMP:  82; 6HR MAX TEMP:  93; 6HR PCP:  0.07;

LAWTON/FT SILL SUNNY     91  71  51 S10       29.87F HX  97
FREDERICK      SUNNY     94  69  44 S12       29.84F HX  99
CLINTON        SUNNY     91  68  46 S13       29.92F HX  95
HOBART         MOSUNNY   91  68  46 SW12      29.90S HX  95
$$

OKZ018>020-024>031-050100-
CENTRAL OKLAHOMA

CITY           SKY/WX    TMP DP  RH WIND       PRES   REMARKS
OKLAHOMA CITY  MOSUNNY   86  74  67 S12       29.90S HX  94
6HR MIN TEMP:  76; 6HR MAX TEMP:  88; 6HR PCP: TRACE;

OKC/WILEY POST SUNNY     87  72  60 S10       29.90S HX  93
OKC/TINKER AFB SUNNY     85  72  64 S13       29.90S HX  91
STILLWATER     CLOUDY    86  70  58 S10       29.90S HX  90
GUTHRIE        SUNNY     88  69  53 S6        29.89S HX  92
$$

OKZ008-013-054>072-050100-
NORTHEAST OKLAHOMA

CITY           SKY/WX    TMP DP  RH WIND       PRES   REMARKS
TULSA          MOSUNNY   83  72  69 SE9       29.90F
6HR MIN TEMP:  81; 6HR MAX TEMP:  85; 6HR PCP: TRACE;

TULSA/JONES    SUNNY     83  71  67 SE9       29.91F
PONCA CITY     SUNNY     83  71  67 E12       29.90S
MUSKOGEE       CLOUDY    82  73  74 E3        29.93F
$$

OKZ032-040>043-046>053-073>077-050100-
SOUTH CENTRAL/SOUTHEAST OKLAHOMA

CITY           SKY/WX    TMP DP  RH WIND       PRES   REMARKS
MCALESTER      MOSUNNY   89  68  49 VRB3      29.91F HX  93
$$




USA.gov is the U.S. government's official web portal to all federal, state and local government web resources and services.